Regional Weather Roundup
Issued by NWS

Home | Current Version | Previous Version | Graphics & Text | Print | Product List | Glossary On
Versions: 1 2 3 4 5 6 7 8 9 10 11 12 13 14 15 16 17 18 19 20 21 22 23 24 25 26 27 28
000
ASUS45 KSLC 241810
RWRUT

UTAH REGIONAL WEATHER ROUNDUP
NATIONAL WEATHER SERVICE SALT LAKE CITY UT
1200 PM MDT WED AUG 24 2016

UTZ001>011-023>025-241900-

NORTHERN UTAH

CITY           SKY/WX    TMP DP  RH WIND       PRES   REMARKS
BRIGHAM CITY     N/A     73  15  11 N6        30.17F
HILL AFB       MOSUNNY   73  22  14 SW12G17   30.19F
LOGAN          SUNNY     70  22  16 S3        30.17F
OGDEN          SUNNY     73  22  14 CALM      30.17F
PROVO AIRPORT  SUNNY     73  37  27 VRB5      30.18S
SALT LAKE CITY MOSUNNY   78  32  18 NW8       30.16S
VERNAL         SUNNY     74  43  32 SE6       30.16F
WENDOVER       SUNNY     75  27  16 SE15      30.17F
HEBER CITY     SUNNY     72  36  26 NW3       30.18F
WEST JORDAN    SUNNY     75  37  25 N10G17    30.18F

$$

UTZ012>022-026-027-241900-

SOUTHERN/CENTRAL UTAH

CITY           SKY/WX    TMP DP  RH WIND       PRES   REMARKS
BLANDING       SUNNY     68  51  53 SE5       30.34F
BRYCE CANYON   SUNNY     72  38  29 W12G17    30.36S
CEDAR CITY     MOSUNNY   77  42  28 SW9       30.23S
DELTA          SUNNY     73  36  25 CALM      30.19F
MILFORD        SUNNY     79  45  29 S9        30.19F
MOAB/CYNLANDS  SUNNY    N/A N/A N/A MISG      30.16F
PRICE          SUNNY     72  45  37 MISG      30.22F
ST GEORGE      CLEAR     82  48  30 CALM      30.11F

$$

REGIONAL REPORTS     COLORADO/ARIZONA

CITY           SKY/WX    TMP DP  RH WIND       PRES   REMARKS
CRAIG, CO      CLOUDY    76  41  28 NW12      30.22F
GRAND JUNCTION SUNNY     75  47  36 MISG      30.18F
RIFLE          SUNNY     70  49  47 NE5       30.22F
MONTROSE       CLOUDY    71  46  40 VRB3      30.25F
CORTEZ         CLOUDY    67  52  58 SW10      30.27F
PAGE, AZ       SUNNY     80  48  32 VRB3      30.16F
GRAND CANYON   SUNNY     73  50  44 VRB5G17   30.34S
KINGMAN        SUNNY     87  50  27 SW12      30.14S
FLAGSTAFF      MOSUNNY   73  43  33 VRB7      30.35S

$$

REGIONAL REPORTS    NEVADA/IDAHO/WYOMING

CITY           SKY/WX    TMP DP  RH WIND       PRES   REMARKS
LAS VEGAS, NV  MOSUNNY   90  48  23 E3        30.01F
ELY            SUNNY     75  29  18 VRB6      30.27F
ELKO           SUNNY     75  17  11 S6        30.23F
POCATELLO, ID  SUNNY     67  29  24 SW8       30.19F
BURLEY         SUNNY     65  42  43 W7        30.19F
EVANSTON, WY   SUNNY     69  14  12 W18G30    30.27S
ROCK SPRINGS   SUNNY     67  22  18 VRB6      30.25F

$$




USA.gov is the U.S. government's official web portal to all federal, state and local government web resources and services.